Waren

Germany     53˚31′13″N   12˚40′58″E
temp.,
°C
wind,
m/s
gust,
m/s
humid.,
%
clouds,
%
prec.,
mm/h
press.,
hPa
HPBL,
m
1 december, tue
tue101:00+1˚s4977100 0.2 1014393
04:00+1˚s4878100 0.1 1013302
07:00+1˚sse4785100 0.2 1013326
10:00+2˚sse3691100 0.0 1015270
13:00+3˚se3588100 0.0 1017265
16:00+2˚e249099 0.0 1018238
19:00+1˚ese259087 0.0 1020156
22:00e229629 0.0 102253
2 december, wed
wed201:00+1˚e249250 0.0 1023147
04:00+1˚ese2592100 0.0 1022210
07:00+1˚se258592 0.0 1022213
10:00+1˚sse3578100 0.0 1021255
13:00+3˚se237486 0.0 1019317
16:00ese23853 0.0 101782
19:00−1˚se37912 0.0 1016220
22:00−2˚sse26900 0.0 1015194
3 december, thu
thu301:00−2˚se37840 0.0 1013246
04:00−2˚sse39810 0.0 1011353
07:00−2˚sse39790 0.0 1009355
10:00−1˚sse48700 0.0 1007359
13:00s477015 0.0 1005534
16:00sse3878100 0.0 1003580
19:00sse4973100 0.0 1002600
22:00−1˚sse41080100 0.0 1001424
4 december, fri
fri401:00−1˚sse41083100 0.0 999386
04:00−2˚se4982100 0.0 998326
07:00−2˚se488696 0.0 997297
10:00se4980100 0.0 996400
13:00+2˚ese2590100 0.0 994304
16:00+2˚ese3796100 0.0 993230
19:00+1˚ese3897100 0.0 993258
22:00+1˚ese3697100 0.0 993196
5 december, sat
sat501:00e359581 0.0 993107
04:00e379585 0.0 993170
07:00e499493 0.0 992269
10:00+2˚e41091100 0.0 992363
13:00+5˚se398794 0.1 993359
16:00+4˚s3593100 0.0 99491
19:00+2˚s2496100 0.0 99692
22:00+2˚ssw1292100 0.0 99737